User: anonymous   Login
Location: Bermeries
(50.2863°N, 3.7551°E)
Time: 21:38:34
(UTC+00:00)
Language:

Aureole 3 - Orbit

View from above orbital plane
View from above orbital plane
View from above satellite
View from above satellite

Ground track
Ground track

The orbit data is extracted from the following two-line orbital elements,

1 12848U 81094A   24206.56390340  .00006932  00000-0  36712-3 0  9991
2 12848  82.4759 191.9810 0523361 216.5942 139.8427 14.42284184159768
Epoch (UTC): 24 July 2024 13:32:01
Eccentricity: 0.0523361
inclination: 82.4759°
perigee height: 378 km
apogee height: 1124 km
right ascension of ascending node: 191.9810°
argument of perigee: 216.5942°
revolutions per day: 14.42284184
mean anomaly at epoch: 139.8427°
orbit number at epoch: 15976

The dashed part of the orbit path shows where the satellite is in the earth's shadow,  

DLR